Vorticity
18 15 12 8 4 4 8 9 13 15 10 4 8 7 4 9 8 -2 4 7 -3 0 1 -5 -2 -2 3 8 6 10 14 11 9 12 19 15 7 6 6 7 9 10 10 11 14 12 9 12 12 10 9 8 7 7 7 7 6 7 5 5 5 5 4 4 4 4 4 5 6 6 7 7 6 7 5 5 6 6 5 4 3 2 1 2 3 3
13 17 23 20 7 4 6 7 11 15 11 3 5 10 4 4 6 1 3 4 -1 1 3 2 -1 -3 1 4 9 15 13 12 15 11 10 11 9 7 5 7 8 8 10 13 14 12 9 9 9 8 6 6 6 6 6 6 6 6 5 5 5 4 4 5 5 5 5 5 6 6 7 7 6 6 5 4 5 5 3 3 3 2 3 4 4 5
11 15 25 25 13 6 4 4 8 11 11 5 5 8 5 8 14 12 5 -2 0 4 4 0 -8 -4 3 -2 6 16 11 10 14 8 1 5 11 9 4 6 9 8 8 12 12 10 10 9 9 7 4 4 4 5 4 5 6 5 5 4 4 4 3 5 5 5 6 5 6 7 7 7 6 5 6 3 3 4 3 2 3 3 4 4 4 5
9 11 19 23 19 13 5 4 6 7 9 9 10 7 6 16 13 7 4 -1 2 4 3 -2 -14 -5 3 -4 7 17 11 12 15 10 2 7 13 8 5 5 6 10 8 8 11 9 9 10 10 8 5 3 4 6 6 6 6 5 3 3 3 4 4 5 5 5 7 5 6 7 7 7 5 4 6 4 2 3 4 3 3 4 4 3 3 5
8 7 9 13 18 20 13 7 4 5 8 9 10 4 6 19 12 7 10 -1 -3 2 5 4 -6 -2 -0 -6 7 12 6 12 16 9 2 9 16 9 6 7 6 9 8 9 12 11 10 9 8 7 5 4 5 7 8 7 7 5 5 4 4 6 7 7 6 6 7 6 6 7 7 6 5 5 6 5 2 2 4 3 3 4 3 3 2 4
10 8 7 8 13 19 19 14 5 3 8 8 7 4 10 19 6 3 10 -1 -0 7 9 15 6 -2 -5 -7 5 11 6 7 6 6 6 8 12 9 6 7 7 7 7 9 11 11 11 10 7 7 8 7 6 6 7 7 7 7 8 9 7 7 9 8 7 8 7 7 7 6 6 6 6 6 6 6 2 2 5 3 3 4 3 4 4 5
10 8 8 7 8 13 17 18 13 6 4 5 10 11 13 14 5 8 12 0 1 2 2 15 9 -4 -5 -5 3 7 5 8 4 4 11 11 10 10 9 8 6 8 9 7 9 10 9 9 9 9 10 9 6 5 6 8 8 8 8 8 9 7 7 9 10 9 7 7 8 6 6 7 7 7 6 6 4 2 4 4 4 4 3 5 7 6
14 9 9 9 7 8 12 20 22 12 4 7 12 14 14 11 12 18 11 -3 -1 -2 -2 7 4 -0 -0 -5 -0 1 1 14 11 -2 9 18 15 13 12 9 6 7 8 6 7 9 7 8 8 7 9 9 7 6 8 9 8 8 7 6 7 7 7 8 9 10 8 7 8 8 8 7 6 8 6 6 5 3 3 5 5 4 4 6 8 8
8 9 11 11 9 7 8 18 25 14 9 13 10 10 16 14 15 15 4 -2 1 -1 0 5 4 6 5 0 2 -1 6 22 8 -10 10 24 15 9 8 9 7 4 6 7 6 7 8 8 7 6 7 7 8 8 8 8 7 7 7 7 8 7 6 7 7 8 7 7 8 8 8 7 6 7 7 5 5 5 4 4 5 5 5 8 9 8
2 7 7 6 9 10 7 11 18 15 17 19 7 7 16 13 13 13 2 -2 -4 -4 3 3 1 5 6 5 5 3 13 20 -2 -13 10 21 11 7 7 9 9 4 4 7 5 6 8 6 5 5 5 4 6 8 6 6 6 7 7 7 7 7 6 6 6 6 6 6 7 8 7 7 6 7 7 5 5 5 4 4 5 6 6 8 9 8
5 5 1 2 8 11 10 8 9 13 21 22 8 5 12 11 10 9 1 -2 -3 -3 2 -0 -3 0 1 5 10 10 7 4 -5 -5 7 11 5 7 10 9 8 7 5 5 4 5 6 5 6 5 3 4 6 7 8 7 6 6 7 7 6 6 6 7 6 6 6 6 6 8 7 7 7 7 6 5 4 4 4 4 4 5 6 8 9 7
9 5 6 9 11 11 10 9 8 10 16 21 15 6 7 12 13 7 -0 -1 -3 -6 -3 0 -2 -4 -3 -0 4 6 4 3 1 -1 4 5 -1 5 16 13 10 12 8 5 4 4 4 4 5 6 5 4 3 4 6 7 8 6 6 8 7 7 8 8 7 6 6 6 5 6 6 6 6 6 5 5 4 4 4 4 3 4 7 8 8 8
10 9 11 10 9 9 9 10 10 9 10 15 18 10 4 9 12 7 1 -2 -3 -6 -3 3 -2 -9 -5 0 1 1 2 5 2 -2 9 11 -1 3 16 14 10 11 11 10 7 4 5 5 4 7 6 2 1 2 1 2 5 6 5 6 7 7 7 7 8 8 8 7 5 5 5 5 5 5 5 5 4 4 4 3 2 4 8 9 9 8
7 6 7 5 5 7 7 11 11 8 10 12 18 17 7 6 4 2 4 2 -1 1 3 5 -0 -6 -5 -2 3 2 -1 2 2 2 11 8 -2 4 15 15 9 6 8 11 9 6 7 7 6 7 6 4 3 3 3 2 2 3 4 4 6 7 7 8 8 8 8 8 6 5 4 4 5 5 5 4 4 5 5 3 1 4 9 9 8 9
2 1 6 5 7 12 9 12 13 10 8 9 20 24 13 11 10 6 12 12 7 8 7 5 1 -3 -6 -7 -0 4 2 5 6 7 6 -1 -2 5 12 15 12 8 7 8 11 11 8 7 7 6 6 6 6 6 7 6 5 5 6 4 4 5 7 7 6 5 6 6 5 4 3 4 4 3 3 4 5 5 5 3 2 5 9 9 9 9
4 6 13 7 4 9 8 13 15 11 8 7 14 16 10 19 25 15 12 13 16 13 3 2 3 -3 -10 -10 -1 5 1 -0 3 5 1 -2 5 8 8 13 16 16 14 9 9 11 10 9 8 5 7 8 7 8 9 9 9 8 7 6 5 5 5 4 5 6 5 5 5 4 4 5 5 4 3 3 4 5 5 5 4 6 8 9 10 8
6 6 13 12 6 6 7 11 10 9 12 11 9 7 8 23 31 18 8 8 13 8 -0 5 8 0 -5 -7 -1 8 3 -3 4 9 5 6 13 10 6 11 18 21 19 14 11 12 13 14 11 8 9 10 8 8 11 11 10 7 5 6 6 7 7 5 5 6 5 6 7 5 5 5 5 4 3 4 7 8 9 7 6 8 10 10 9 7
8 2 2 8 9 10 13 12 7 7 10 8 7 7 9 17 22 20 16 14 11 3 2 11 10 4 5 -0 0 12 11 -0 4 13 13 13 15 15 11 8 14 22 21 18 16 11 8 8 8 8 7 8 9 8 8 8 8 7 7 9 10 11 11 9 7 6 5 6 7 7 6 5 5 5 6 11 15 12 9 8 8 10 11 10 9 8
7 5 3 6 7 10 12 9 6 5 4 5 7 8 9 9 9 12 14 16 17 11 8 15 16 9 7 5 3 13 16 2 -2 5 7 8 11 16 15 3 6 21 24 20 16 8 9 9 6 9 11 11 11 8 6 5 6 9 11 13 14 13 11 9 7 7 7 7 8 8 7 6 8 11 14 16 14 10 9 11 13 13 11 10 9 8
9 7 5 7 10 11 7 2 2 2 2 2 2 3 5 4 7 9 6 9 17 16 11 14 20 17 13 13 5 6 15 8 2 1 -2 4 8 3 0 -5 -2 12 21 23 13 3 13 19 11 11 13 12 10 7 7 7 7 9 12 14 15 13 13 12 12 12 11 10 9 8 9 11 14 14 13 12 11 12 13 14 15 13 11 11 8 6
8 8 8 8 7 4 1 0 3 4 3 1 -3 -3 -1 1 6 5 1 7 10 9 9 9 14 20 24 26 13 5 10 6 2 4 -0 6 11 2 1 1 -3 2 15 26 20 9 15 16 6 5 8 8 6 4 4 5 6 8 10 13 15 16 17 16 15 14 12 11 9 10 13 13 13 11 10 12 14 15 14 12 13 13 10 9 6 5
8 8 7 7 4 2 5 8 9 8 7 7 5 2 3 6 8 2 -0 9 8 6 10 4 2 12 23 29 21 8 8 4 1 1 -1 2 4 1 2 1 -1 2 10 22 24 15 14 10 4 7 8 7 8 7 6 4 4 7 11 13 14 15 17 17 16 15 14 13 12 13 14 11 10 12 12 13 13 12 10 9 11 12 8 5 4 4
17 18 10 7 7 7 10 8 7 9 10 14 14 9 8 8 8 6 5 10 7 5 11 5 -1 10 24 31 24 12 15 20 8 -7 -7 1 1 -2 0 3 8 7 4 10 10 2 5 8 9 14 13 10 12 9 4 3 4 8 11 12 13 15 17 14 13 14 13 14 14 12 12 12 12 14 12 9 8 9 9 8 10 10 6 3 3 5
21 20 10 9 10 9 11 8 9 14 11 8 9 9 7 5 7 9 6 10 10 6 9 7 -1 6 20 28 26 16 18 25 12 -6 -2 10 5 -2 -0 4 9 8 2 7 4 -2 5 10 8 12 11 9 10 6 3 5 6 8 9 10 11 14 15 12 11 13 13 14 13 11 11 12 12 13 10 5 6 9 8 8 9 7 3 2 5 6
24 26 13 8 8 6 6 5 5 5 -2 -6 -0 7 9 6 7 7 4 5 5 2 6 6 -0 -1 7 20 27 23 24 26 14 -1 2 12 9 1 3 6 11 10 4 5 6 3 9 12 9 10 8 7 8 6 8 10 6 2 4 9 13 13 12 11 10 10 12 13 13 10 10 10 11 12 10 5 6 8 8 8 7 3 3 6 7 7
3 20 19 11 7 2 -1 -0 1 0 -2 -1 3 8 12 10 6 7 9 4 -0 4 5 -1 1 1 1 11 17 23 37 31 8 -3 -2 5 7 1 2 7 8 6 -1 1 10 14 17 19 16 11 6 7 11 7 4 7 6 3 2 5 10 10 10 11 7 7 9 10 12 12 9 9 10 11 10 9 9 9 7 6 4 3 6 9 8 5
-8 1 12 12 10 9 9 13 13 10 7 6 6 6 9 10 7 5 5 1 2 10 7 0 6 5 3 8 1 15 47 32 1 -0 -0 -1 6 1 1 10 9 5 6 10 16 19 24 24 17 11 7 5 9 8 3 5 9 8 3 3 6 8 9 8 4 5 8 6 8 12 11 10 9 8 9 10 9 8 6 3 3 6 9 9 7 3
7 2 2 3 6 9 11 16 20 13 5 5 6 5 6 9 11 8 5 4 7 8 2 6 11 2 6 14 1 18 54 31 -3 9 15 12 14 0 -9 -2 -1 1 11 18 18 20 29 30 15 9 8 4 3 5 5 10 15 12 5 3 4 5 7 7 4 4 6 6 7 9 10 11 9 7 7 7 6 6 4 4 7 10 11 7 3 2
8 6 7 5 6 8 6 8 15 14 7 6 7 5 5 6 5 5 8 10 13 11 5 9 12 2 6 17 8 21 50 28 -8 -1 18 25 23 13 5 -1 -5 1 9 11 8 10 27 36 18 2 2 4 7 9 7 9 12 10 5 2 1 3 4 5 3 3 6 8 8 7 7 8 9 8 7 6 7 7 7 10 12 11 9 4 2 6
1 4 15 15 8 12 15 9 9 14 11 5 6 7 7 8 3 1 7 10 8 11 14 14 13 8 8 14 11 11 28 32 4 -17 -8 5 8 16 18 5 -3 1 1 -2 -4 1 20 32 18 5 5 7 9 9 6 6 6 7 6 4 2 2 5 4 2 2 5 9 12 9 6 5 7 9 9 9 10 11 12 13 11 9 6 2 5 7
2 -0 8 13 6 7 17 16 11 15 15 6 6 10 7 10 10 2 5 13 11 7 11 11 11 12 11 12 8 -6 -1 28 28 1 -11 -9 -6 1 4 6 14 9 -3 -4 -6 -4 14 23 14 9 7 5 7 8 8 8 7 5 4 6 8 7 5 6 6 3 2 8 12 10 7 5 5 7 10 10 11 13 13 11 8 6 4 3 7 4
6 4 1 7 9 4 10 20 16 17 20 7 -1 7 9 7 9 5 2 10 14 11 10 6 5 12 15 14 12 3 0 21 33 19 3 -3 3 10 7 10 20 10 4 14 10 3 16 20 12 8 4 0 0 1 3 5 6 8 7 8 15 15 6 4 6 3 0 4 7 8 11 10 5 5 9 10 12 14 12 9 7 5 3 6 6 0
0 6 3 5 10 4 4 13 12 17 28 15 -7 -1 9 2 2 8 5 3 12 24 28 20 13 14 16 15 16 13 11 20 24 12 2 2 11 21 18 9 5 -2 -2 9 9 8 14 13 6 4 4 4 -1 -8 -7 -5 -3 6 9 9 15 17 9 4 4 2 2 3 3 4 11 14 9 6 7 9 13 15 10 6 5 6 8 8 3 -2
-2 1 1 2 7 5 4 7 2 8 26 26 7 -1 1 1 3 7 4 -2 2 16 24 23 21 20 15 16 23 15 3 10 18 4 -5 -2 1 7 13 11 6 2 -4 -7 -2 4 4 5 11 11 4 1 -1 -3 -1 -2 -3 1 3 6 12 12 8 5 4 2 0 0 2 4 7 11 12 10 7 8 12 13 9 6 7 9 9 4 -1 -0
7 7 -3 -5 -1 -1 9 18 8 3 14 20 17 7 -6 -2 8 9 8 4 -4 -3 4 7 13 20 17 16 26 28 11 3 7 5 0 -0 -6 -7 3 8 5 4 -0 -5 1 8 8 7 10 14 12 10 9 9 6 1 -1 -1 -1 0 4 6 5 5 5 6 3 -1 1 4 4 8 14 13 9 9 11 11 10 8 8 10 7 0 -4 -2
19 23 1 -7 -5 -17 -7 20 16 5 12 14 17 20 2 -11 -2 6 8 8 0 -3 1 -1 -4 7 18 14 11 23 27 17 9 4 1 3 0 -6 -4 3 6 7 8 7 3 1 7 8 -3 -6 1 2 1 4 3 -2 -4 -3 1 2 1 2 4 3 3 7 7 3 1 2 3 7 12 13 9 9 10 10 11 12 9 6 3 0 -2 -2
26 45 19 -0 3 -21 -33 3 23 14 13 11 14 30 20 -8 -9 3 6 6 6 3 0 -2 -5 -0 14 16 5 3 15 27 29 13 -5 -3 7 3 -4 -3 -0 -2 1 11 11 1 1 4 -1 -1 1 -7 -10 -4 -2 -1 1 1 1 1 3 6 9 10 9 7 7 7 5 5 6 6 9 11 9 9 11 10 12 15 9 0 -1 2 4 4
14 49 40 13 14 -5 -36 -15 21 22 12 5 7 30 35 7 -9 -1 4 5 7 4 -1 -1 6 10 12 11 7 2 1 11 28 31 14 -1 -1 2 2 3 5 3 -4 -2 9 15 13 5 -3 -3 -3 -8 -5 3 3 1 4 4 2 3 8 9 6 9 14 11 7 7 6 7 9 5 4 7 7 9 14 14 16 16 11 4 4 4 4 3
-7 27 45 27 23 20 -12 -21 7 22 15 5 3 22 39 25 -1 -10 -5 1 2 1 2 3 8 15 12 2 4 12 9 1 10 29 34 21 8 4 2 -2 2 10 7 -1 -0 9 18 19 10 -0 -6 -6 1 9 10 8 9 12 12 12 11 8 3 7 14 12 9 9 8 9 9 6 2 2 5 11 15 16 17 16 11 7 5 4 3 2
-4 20 42 36 32 38 17 -8 2 17 13 4 0 13 32 33 12 -11 -13 1 4 -4 -2 5 7 9 8 -0 -0 11 16 11 8 13 18 20 21 20 16 8 1 -0 -0 -3 -5 -2 4 12 16 12 10 11 11 9 5 2 6 11 11 10 10 7 4 6 10 11 12 11 8 5 3 4 4 1 2 11 16 14 12 10 6 4 2 2 3 1
2 18 30 28 29 40 29 8 11 18 12 6 -1 -2 11 25 26 10 -4 0 6 0 -2 1 1 2 4 -1 -2 4 6 5 7 5 -1 0 7 11 15 22 21 14 9 -0 -6 -3 -0 1 6 10 11 12 9 6 2 3 9 11 6 5 9 6 4 10 12 12 12 10 7 5 2 2 5 3 4 12 15 10 6 4 1 1 1 -1 -2 -2
-11 -2 14 13 16 31 25 11 20 24 15 10 1 -11 -8 8 24 28 16 1 -3 -1 2 -0 -5 -2 1 -5 -6 2 3 -2 -3 -3 -5 -0 7 6 5 11 18 23 29 24 13 7 -0 -7 -8 -7 -6 -3 -0 3 6 6 7 7 4 5 4 -2 5 18 15 7 7 7 6 7 6 4 5 3 4 10 12 7 4 2 0 -1 -0 -1 -4 -3
-21 -16 10 3 4 34 29 5 16 30 21 15 8 -4 -7 -1 10 26 27 14 2 -2 -0 1 -3 -4 -6 -9 -5 3 3 0 -1 -7 -12 -5 7 8 4 4 6 8 14 22 29 31 24 15 10 5 -1 -5 -6 -2 5 6 5 4 5 7 6 2 6 14 11 6 5 3 3 6 7 7 8 7 6 8 10 8 2 -1 -1 -0 -1 -1 -1 -1
-28 -24 12 -2 -11 32 41 6 4 19 17 16 13 1 -5 -6 -6 2 8 10 12 10 7 7 5 4 0 -1 5 8 1 -4 -3 -6 -7 -1 5 6 5 5 7 6 4 4 7 12 16 18 23 33 34 22 7 -3 -6 -6 -2 3 7 9 12 11 7 5 6 6 0 -2 5 10 8 6 8 9 10 10 7 5 3 -2 -1 2 -0 -1 1 2
-19 -33 7 5 -12 19 39 18 10 12 8 11 12 6 4 -2 -13 -17 -14 -7 1 5 8 9 9 16 22 18 18 18 10 2 -0 -3 0 6 6 3 3 5 9 9 8 7 2 -2 1 3 8 21 33 38 35 23 8 -2 -6 -7 -5 -4 -2 3 4 5 9 10 6 3 3 1 -0 5 8 7 10 12 7 3 2 0 -2 1 2 -0 1 3
6 -29 -7 11 7 17 26 20 21 18 6 2 4 5 7 5 -1 -6 -9 -6 -8 -14 -7 4 2 3 7 4 6 11 9 8 10 6 5 8 7 5 3 4 7 6 4 9 11 8 8 8 7 6 8 17 29 34 35 33 23 12 9 5 -2 -4 -4 0 7 11 8 1 -3 1 0 -8 -9 -1 6 12 14 6 -0 -0 -1 -1 1 -1 -1 2
16 -21 -21 1 15 22 22 19 19 19 18 15 9 11 17 18 14 5 5 21 25 6 0 14 17 9 4 -2 -3 4 9 13 15 11 9 10 8 8 9 6 7 6 2 2 7 9 10 10 8 5 1 -0 4 11 20 25 24 24 27 29 29 20 3 -5 -2 5 10 3 1 17 11 -26 -31 -2 9 7 12 9 -1 -1 0 -1 0 0 1 3
22 -7 -23 -10 5 11 19 26 15 3 15 27 15 6 20 36 31 7 -0 23 36 13 -3 8 17 16 17 16 12 10 13 17 15 10 13 15 10 10 14 15 15 13 8 4 4 8 11 11 8 5 1 -2 -3 -1 2 3 5 7 6 13 30 36 28 15 -3 -11 0 -1 -3 24 38 14 9 26 20 7 12 11 1 1 1 -1 1 -1 -3 -2
27 9 -17 -14 0 -5 0 27 26 -5 -1 34 37 8 -2 15 22 6 -3 11 25 17 7 11 15 13 11 9 7 6 8 11 9 5 8 11 9 7 7 7 7 7 8 10 11 12 15 18 16 12 7 4 2 -1 -1 1 4 7 5 4 8 17 30 36 23 9 8 0 -5 17 36 36 43 38 11 3 16 11 1 2 0 -1 3 1 -3 -2
30 29 -2 -18 -8 -11 -15 14 32 0 -22 10 44 30 2 -4 -0 -3 -3 6 14 14 11 11 15 19 19 15 10 9 12 15 13 9 9 11 12 11 8 7 8 8 7 10 12 13 15 17 17 17 13 11 10 10 11 11 11 15 17 11 5 9 18 23 25 27 19 11 18 21 3 6 40 39 7 7 23 13 -1 2 3 3 7 6 5 4
23 49 37 -4 -19 -9 -2 9 22 9 -19 -14 14 20 9 7 11 11 10 10 11 12 15 16 15 14 16 19 17 13 14 17 15 12 10 11 12 12 11 11 12 12 11 11 10 10 11 11 14 17 15 11 12 17 22 23 22 23 22 19 18 19 15 14 27 36 24 18 34 29 -1 -0 29 28 13 26 34 12 -3 2 7 8 5 2 3 3
Height
5871 5871 5873 5877 5879 5879 5881 5882 5884 5887 5887 5888 5890 5892 5895 5897 5898 5899 5900 5901 5901 5902 5903 5904 5905 5905 5905 5904 5903 5904 5905 5906 5907 5908 5909 5909 5910 5909 5909 5908 5909 5909 5910 5911 5911 5912 5912 5913 5914 5916 5917 5919 5920 5921 5922 5923 5924 5924 5925 5926 5926 5927 5928 5928 5929 5929 5930 5930 5931 5931 5931 5932 5932 5933 5934 5934 5935 5935 5936 5936 5936 5936 5936 5937 5936 5936
5868 5869 5872 5875 5877 5877 5878 5880 5881 5883 5884 5885 5887 5889 5892 5894 5897 5898 5898 5899 5900 5900 5901 5903 5904 5904 5904 5903 5902 5902 5903 5904 5906 5907 5907 5908 5909 5909 5908 5908 5908 5909 5909 5910 5911 5911 5912 5913 5914 5915 5917 5918 5920 5921 5922 5923 5923 5924 5925 5925 5926 5926 5927 5928 5928 5929 5930 5930 5930 5931 5931 5932 5932 5933 5933 5934 5934 5935 5935 5935 5936 5936 5936 5936 5935 5935
5867 5869 5871 5873 5873 5874 5875 5877 5878 5880 5881 5882 5884 5886 5888 5892 5895 5896 5894 5895 5898 5899 5901 5902 5903 5903 5903 5902 5901 5901 5902 5903 5904 5905 5905 5906 5908 5908 5907 5907 5908 5908 5909 5909 5910 5911 5911 5913 5914 5915 5916 5918 5919 5920 5921 5922 5923 5924 5924 5925 5925 5926 5927 5927 5928 5929 5929 5930 5930 5930 5931 5931 5932 5932 5933 5933 5934 5934 5935 5935 5935 5935 5935 5935 5935 5934
5866 5868 5869 5869 5870 5871 5872 5874 5875 5876 5878 5879 5881 5882 5886 5890 5893 5893 5893 5893 5895 5898 5900 5902 5903 5902 5901 5900 5900 5900 5900 5901 5902 5904 5904 5905 5907 5907 5906 5907 5907 5908 5908 5908 5909 5910 5911 5912 5913 5915 5916 5917 5918 5920 5921 5922 5923 5923 5924 5924 5925 5925 5926 5927 5927 5928 5929 5929 5929 5930 5930 5931 5931 5932 5932 5932 5933 5933 5934 5934 5934 5934 5934 5934 5934 5933
5864 5866 5865 5865 5866 5868 5870 5871 5872 5873 5875 5877 5878 5880 5884 5889 5891 5893 5893 5893 5893 5896 5898 5900 5901 5900 5899 5898 5898 5899 5899 5899 5900 5902 5903 5905 5906 5906 5905 5906 5907 5907 5908 5908 5909 5910 5910 5911 5913 5914 5915 5916 5917 5919 5920 5921 5922 5923 5923 5924 5924 5925 5926 5926 5927 5928 5928 5928 5929 5929 5930 5930 5931 5931 5932 5932 5932 5933 5933 5933 5934 5934 5933 5933 5933 5932
5862 5863 5862 5863 5864 5865 5866 5868 5869 5871 5873 5875 5876 5879 5883 5887 5890 5892 5892 5891 5891 5892 5894 5897 5897 5897 5896 5896 5896 5897 5898 5898 5898 5899 5901 5903 5904 5905 5905 5905 5906 5907 5907 5907 5908 5909 5910 5911 5912 5913 5914 5915 5916 5917 5918 5919 5921 5922 5922 5923 5924 5924 5925 5926 5927 5927 5927 5928 5928 5929 5929 5930 5930 5931 5931 5931 5931 5932 5932 5933 5933 5933 5933 5932 5932 5932
5860 5860 5860 5860 5861 5862 5863 5865 5867 5869 5870 5872 5876 5879 5881 5883 5886 5889 5889 5889 5888 5888 5891 5893 5894 5895 5894 5894 5895 5896 5897 5897 5897 5897 5899 5901 5902 5904 5904 5904 5905 5906 5906 5906 5907 5909 5909 5910 5911 5912 5914 5915 5915 5916 5917 5918 5919 5920 5921 5922 5923 5923 5924 5925 5926 5926 5927 5927 5928 5928 5928 5929 5929 5930 5930 5931 5931 5931 5932 5932 5932 5932 5932 5931 5931 5931
5857 5856 5857 5858 5859 5859 5860 5862 5864 5866 5867 5871 5876 5877 5878 5880 5882 5885 5887 5886 5886 5886 5888 5889 5891 5893 5891 5891 5893 5894 5895 5896 5896 5897 5898 5899 5901 5902 5903 5903 5903 5905 5905 5906 5906 5907 5908 5910 5910 5911 5913 5914 5914 5915 5916 5917 5918 5919 5920 5920 5921 5921 5922 5923 5925 5926 5926 5926 5927 5927 5928 5928 5928 5929 5929 5930 5930 5930 5930 5931 5931 5931 5931 5930 5930 5930
5853 5853 5855 5856 5856 5856 5858 5861 5862 5863 5864 5870 5875 5874 5875 5878 5879 5882 5884 5884 5885 5884 5882 5884 5887 5887 5887 5889 5891 5892 5893 5894 5895 5897 5897 5897 5898 5900 5901 5902 5903 5904 5904 5904 5905 5906 5908 5909 5909 5910 5911 5912 5913 5914 5914 5915 5916 5917 5918 5919 5920 5920 5921 5922 5923 5924 5925 5925 5926 5926 5927 5927 5927 5928 5928 5928 5929 5929 5929 5930 5930 5930 5930 5929 5929 5928
5849 5851 5852 5851 5852 5854 5856 5859 5860 5860 5862 5868 5871 5870 5872 5875 5876 5879 5879 5881 5883 5879 5876 5880 5882 5882 5883 5885 5888 5887 5889 5892 5894 5896 5895 5895 5896 5897 5899 5901 5902 5903 5903 5903 5904 5905 5906 5907 5908 5909 5909 5911 5912 5912 5913 5913 5914 5915 5917 5918 5919 5920 5920 5920 5921 5922 5924 5924 5925 5926 5926 5926 5926 5926 5927 5927 5928 5928 5928 5928 5929 5929 5928 5928 5928 5927
5847 5848 5847 5847 5850 5852 5854 5855 5856 5857 5859 5864 5867 5867 5869 5870 5872 5874 5874 5877 5876 5870 5872 5877 5879 5879 5878 5880 5882 5882 5885 5890 5893 5893 5893 5893 5894 5895 5897 5899 5901 5902 5902 5902 5903 5904 5905 5906 5906 5907 5908 5910 5911 5911 5912 5912 5913 5914 5915 5916 5917 5918 5919 5919 5920 5921 5922 5923 5924 5925 5925 5925 5925 5925 5925 5925 5926 5927 5927 5927 5927 5927 5927 5927 5926 5926
5843 5842 5843 5846 5848 5849 5850 5851 5852 5853 5855 5859 5862 5863 5864 5866 5868 5869 5869 5870 5866 5862 5869 5875 5877 5875 5872 5873 5878 5879 5883 5888 5889 5890 5891 5892 5893 5894 5895 5896 5898 5899 5900 5901 5901 5902 5903 5904 5905 5906 5907 5908 5909 5910 5910 5910 5911 5911 5913 5914 5915 5916 5918 5918 5919 5919 5920 5922 5923 5923 5924 5924 5924 5924 5924 5924 5924 5925 5925 5925 5925 5926 5925 5925 5925 5925
5838 5839 5841 5842 5843 5845 5847 5847 5849 5850 5851 5853 5856 5858 5859 5861 5863 5862 5862 5862 5858 5860 5867 5873 5874 5870 5865 5870 5876 5878 5881 5884 5885 5888 5889 5890 5891 5892 5893 5894 5895 5896 5898 5899 5899 5900 5901 5902 5903 5905 5905 5906 5907 5908 5908 5908 5909 5909 5910 5912 5913 5914 5915 5917 5918 5918 5919 5920 5921 5922 5922 5922 5923 5923 5923 5923 5923 5923 5924 5924 5924 5924 5924 5923 5923 5923
5833 5835 5836 5837 5839 5842 5843 5844 5845 5846 5848 5849 5851 5853 5854 5856 5856 5856 5857 5857 5857 5860 5865 5870 5870 5864 5862 5867 5872 5875 5879 5881 5883 5885 5887 5889 5890 5890 5890 5891 5893 5894 5895 5896 5897 5898 5899 5900 5901 5903 5903 5904 5905 5906 5907 5907 5907 5908 5908 5909 5911 5912 5913 5914 5916 5917 5918 5918 5919 5920 5921 5921 5921 5921 5921 5921 5922 5922 5922 5922 5922 5922 5922 5922 5922 5922
5828 5830 5832 5834 5837 5839 5839 5841 5843 5844 5845 5846 5848 5850 5850 5851 5851 5852 5854 5855 5856 5859 5863 5867 5863 5857 5859 5865 5869 5873 5876 5878 5880 5882 5884 5886 5887 5887 5888 5888 5890 5891 5892 5894 5895 5896 5897 5898 5899 5901 5901 5902 5903 5904 5904 5905 5905 5906 5907 5907 5908 5909 5910 5912 5913 5914 5916 5916 5916 5917 5918 5919 5919 5919 5919 5919 5920 5920 5920 5920 5920 5920 5920 5920 5920 5920
5823 5826 5831 5832 5833 5835 5836 5838 5840 5841 5841 5842 5845 5845 5844 5846 5849 5851 5852 5853 5856 5857 5858 5861 5857 5855 5859 5863 5866 5871 5872 5874 5876 5878 5880 5882 5884 5884 5885 5886 5887 5888 5890 5891 5892 5893 5894 5895 5896 5898 5899 5899 5900 5901 5902 5903 5903 5903 5904 5905 5905 5906 5907 5909 5910 5911 5913 5913 5914 5915 5916 5917 5917 5917 5917 5917 5917 5918 5918 5918 5918 5918 5918 5919 5919 5918
5819 5823 5829 5829 5828 5830 5832 5834 5836 5836 5837 5838 5839 5839 5840 5845 5849 5849 5849 5851 5854 5852 5852 5854 5854 5854 5858 5860 5863 5867 5868 5870 5872 5874 5876 5878 5880 5881 5882 5884 5885 5885 5887 5888 5890 5891 5891 5892 5894 5895 5897 5897 5897 5899 5900 5900 5901 5901 5901 5902 5903 5904 5905 5906 5907 5908 5909 5911 5912 5913 5913 5914 5914 5915 5915 5915 5915 5915 5915 5916 5916 5916 5916 5917 5917 5917
5815 5817 5823 5824 5823 5826 5829 5831 5831 5831 5833 5833 5834 5836 5840 5843 5844 5844 5845 5847 5848 5846 5846 5849 5851 5852 5854 5856 5859 5863 5865 5867 5869 5871 5874 5875 5876 5878 5880 5882 5882 5883 5884 5885 5887 5888 5889 5890 5891 5892 5894 5895 5895 5896 5897 5898 5898 5898 5899 5899 5900 5901 5903 5904 5904 5905 5906 5908 5909 5910 5910 5911 5911 5912 5912 5912 5912 5912 5913 5913 5913 5913 5914 5915 5915 5915
5810 5811 5815 5819 5820 5822 5825 5825 5824 5825 5827 5829 5831 5835 5837 5837 5837 5838 5839 5839 5841 5841 5842 5845 5847 5847 5849 5851 5856 5860 5862 5865 5867 5869 5870 5872 5874 5875 5878 5879 5880 5881 5882 5883 5885 5886 5887 5888 5888 5890 5891 5892 5893 5894 5894 5895 5895 5896 5896 5897 5898 5899 5900 5900 5901 5902 5903 5905 5906 5906 5907 5907 5908 5909 5909 5909 5910 5910 5910 5910 5910 5911 5912 5913 5913 5913
5806 5805 5808 5813 5816 5818 5818 5816 5816 5819 5823 5826 5827 5829 5831 5831 5833 5835 5835 5835 5837 5837 5838 5842 5842 5842 5845 5849 5853 5857 5859 5862 5864 5866 5867 5870 5872 5874 5875 5877 5878 5879 5880 5881 5883 5884 5886 5886 5886 5888 5889 5890 5891 5891 5892 5892 5893 5894 5894 5895 5895 5896 5897 5898 5899 5900 5901 5902 5903 5903 5904 5904 5905 5905 5906 5906 5907 5907 5907 5907 5908 5909 5909 5911 5912 5912
5799 5798 5801 5807 5810 5810 5808 5808 5811 5816 5819 5821 5822 5823 5825 5827 5828 5830 5830 5830 5832 5832 5834 5836 5837 5838 5842 5847 5850 5853 5856 5858 5861 5863 5865 5867 5869 5871 5872 5874 5876 5878 5878 5879 5880 5882 5883 5884 5884 5885 5886 5887 5888 5888 5889 5889 5890 5891 5892 5892 5893 5893 5894 5895 5896 5898 5898 5899 5900 5900 5901 5901 5901 5902 5903 5903 5904 5905 5905 5905 5905 5906 5907 5908 5910 5910
5791 5792 5795 5801 5802 5800 5803 5807 5810 5812 5814 5816 5819 5820 5822 5824 5825 5825 5825 5826 5827 5828 5829 5831 5832 5835 5839 5843 5846 5849 5852 5855 5858 5860 5861 5862 5865 5867 5869 5872 5874 5875 5876 5877 5878 5879 5880 5881 5882 5883 5883 5884 5884 5885 5886 5887 5888 5889 5890 5890 5891 5891 5892 5893 5894 5895 5896 5896 5897 5897 5898 5898 5898 5899 5900 5901 5902 5902 5902 5903 5903 5904 5905 5906 5907 5908
5787 5788 5788 5791 5794 5795 5800 5804 5805 5807 5809 5811 5813 5817 5819 5819 5820 5820 5820 5823 5825 5825 5826 5827 5827 5830 5836 5840 5842 5846 5849 5853 5855 5856 5857 5858 5861 5863 5865 5868 5870 5872 5873 5874 5876 5876 5877 5878 5879 5880 5880 5881 5882 5883 5883 5884 5886 5887 5888 5888 5889 5890 5891 5891 5892 5893 5894 5894 5894 5894 5895 5895 5896 5897 5898 5898 5899 5900 5900 5900 5901 5902 5903 5904 5905 5906
5779 5779 5780 5783 5788 5792 5795 5797 5798 5800 5803 5803 5804 5810 5813 5813 5814 5817 5818 5821 5823 5822 5823 5823 5821 5825 5834 5837 5838 5842 5846 5849 5851 5852 5853 5854 5856 5859 5862 5864 5866 5868 5869 5871 5873 5874 5874 5875 5876 5877 5877 5878 5878 5879 5880 5881 5883 5884 5886 5886 5887 5888 5889 5890 5890 5891 5892 5892 5892 5892 5892 5893 5893 5894 5895 5896 5896 5897 5898 5898 5899 5900 5901 5902 5903 5903
5769 5770 5773 5775 5779 5783 5784 5785 5787 5789 5792 5795 5798 5803 5808 5810 5811 5813 5814 5816 5816 5817 5819 5819 5816 5821 5831 5835 5835 5838 5841 5844 5847 5848 5849 5849 5851 5855 5858 5860 5862 5864 5865 5867 5868 5870 5871 5871 5872 5873 5874 5875 5875 5876 5877 5879 5881 5882 5883 5884 5885 5886 5887 5888 5889 5889 5890 5891 5891 5891 5891 5891 5891 5892 5893 5893 5894 5894 5895 5896 5897 5898 5899 5900 5901 5901
5757 5761 5764 5765 5767 5770 5773 5774 5777 5782 5787 5790 5793 5797 5802 5807 5807 5807 5809 5810 5809 5811 5816 5815 5814 5820 5827 5830 5832 5833 5836 5840 5843 5844 5845 5845 5847 5851 5854 5856 5859 5860 5861 5863 5864 5866 5866 5867 5868 5870 5871 5872 5873 5873 5874 5876 5878 5880 5881 5882 5883 5883 5885 5886 5887 5887 5888 5889 5889 5889 5889 5889 5889 5890 5890 5891 5891 5892 5893 5894 5894 5895 5896 5898 5898 5899
5747 5750 5754 5757 5760 5764 5770 5775 5778 5781 5784 5786 5788 5791 5795 5801 5804 5804 5804 5803 5804 5809 5812 5812 5814 5818 5822 5825 5828 5830 5832 5836 5839 5840 5841 5842 5844 5847 5849 5853 5855 5856 5857 5859 5860 5861 5861 5862 5863 5865 5868 5869 5870 5871 5872 5874 5875 5877 5878 5879 5880 5881 5882 5883 5884 5885 5886 5886 5887 5887 5887 5887 5887 5887 5888 5888 5889 5889 5890 5891 5892 5893 5894 5895 5896 5897
5740 5741 5745 5751 5755 5761 5768 5774 5778 5779 5780 5782 5785 5787 5791 5795 5799 5800 5798 5799 5803 5806 5807 5810 5814 5815 5817 5821 5824 5826 5830 5833 5836 5837 5838 5839 5841 5842 5845 5848 5850 5851 5852 5855 5856 5857 5857 5858 5860 5862 5864 5866 5868 5869 5871 5871 5873 5874 5875 5877 5877 5878 5880 5881 5882 5883 5884 5884 5885 5885 5885 5885 5885 5885 5885 5886 5886 5887 5888 5889 5889 5890 5891 5893 5894 5894
5733 5736 5741 5744 5748 5756 5762 5767 5772 5775 5776 5778 5780 5783 5786 5790 5792 5794 5796 5798 5801 5801 5803 5809 5813 5812 5815 5818 5820 5823 5828 5831 5833 5835 5836 5837 5837 5837 5840 5842 5843 5844 5848 5851 5853 5854 5854 5856 5858 5860 5862 5863 5865 5867 5868 5869 5870 5872 5873 5874 5875 5876 5877 5878 5879 5880 5881 5882 5882 5883 5883 5883 5883 5883 5883 5883 5884 5885 5886 5886 5887 5888 5889 5890 5891 5891
5725 5731 5736 5738 5741 5748 5755 5760 5765 5769 5771 5773 5775 5777 5780 5784 5786 5789 5793 5796 5797 5797 5801 5806 5808 5808 5812 5815 5817 5820 5824 5827 5829 5830 5832 5833 5833 5833 5835 5836 5838 5840 5843 5847 5849 5851 5853 5854 5856 5858 5859 5860 5862 5864 5866 5867 5868 5870 5871 5872 5872 5873 5875 5875 5876 5877 5878 5879 5880 5881 5881 5881 5881 5881 5881 5881 5882 5882 5883 5883 5884 5885 5886 5887 5888 5888
5719 5725 5730 5732 5734 5739 5746 5753 5758 5761 5765 5768 5770 5772 5775 5778 5781 5784 5787 5790 5792 5794 5797 5801 5801 5804 5809 5813 5814 5816 5819 5822 5825 5826 5827 5829 5829 5829 5831 5833 5836 5838 5840 5842 5845 5848 5851 5852 5854 5855 5856 5857 5858 5860 5862 5865 5866 5868 5869 5870 5870 5871 5872 5873 5873 5874 5875 5877 5878 5878 5878 5878 5878 5879 5879 5879 5879 5880 5880 5881 5881 5882 5883 5884 5885 5886
5713 5719 5723 5726 5729 5732 5738 5746 5750 5756 5761 5762 5763 5766 5768 5772 5775 5778 5781 5785 5788 5790 5794 5795 5795 5799 5806 5810 5810 5811 5813 5817 5820 5822 5824 5825 5825 5826 5827 5830 5833 5835 5837 5839 5841 5844 5848 5849 5850 5851 5852 5854 5855 5856 5859 5861 5863 5864 5866 5867 5868 5869 5869 5869 5871 5871 5873 5874 5874 5874 5875 5876 5876 5876 5877 5877 5877 5877 5877 5878 5878 5879 5880 5881 5882 5883
5708 5714 5719 5721 5723 5726 5733 5740 5746 5752 5753 5752 5753 5758 5763 5767 5771 5774 5778 5781 5784 5787 5789 5790 5792 5797 5803 5805 5806 5808 5810 5814 5817 5819 5821 5822 5823 5823 5825 5827 5829 5831 5833 5834 5836 5840 5843 5845 5847 5848 5849 5850 5851 5853 5855 5857 5858 5860 5862 5865 5866 5866 5866 5866 5868 5869 5870 5871 5871 5871 5872 5872 5873 5873 5874 5874 5874 5874 5874 5874 5875 5877 5878 5878 5879 5880
5702 5708 5713 5714 5717 5722 5728 5735 5742 5743 5741 5742 5748 5756 5761 5764 5766 5770 5773 5776 5781 5784 5784 5785 5789 5794 5797 5799 5802 5805 5808 5811 5813 5815 5816 5818 5819 5820 5822 5825 5827 5829 5830 5831 5833 5836 5838 5840 5842 5844 5846 5847 5848 5850 5852 5853 5854 5856 5858 5860 5861 5862 5862 5864 5865 5866 5867 5867 5868 5868 5869 5869 5870 5871 5871 5871 5871 5871 5871 5872 5873 5874 5875 5876 5876 5877
5694 5700 5705 5708 5713 5719 5723 5728 5732 5730 5731 5739 5747 5754 5758 5761 5764 5767 5768 5771 5776 5778 5779 5781 5784 5788 5791 5794 5798 5801 5803 5805 5808 5811 5813 5814 5815 5816 5817 5820 5823 5825 5826 5828 5830 5832 5834 5836 5837 5839 5841 5843 5844 5846 5847 5848 5850 5851 5852 5854 5856 5858 5859 5861 5862 5863 5863 5864 5864 5865 5865 5866 5867 5867 5868 5868 5868 5868 5868 5869 5870 5871 5872 5873 5874 5874
5686 5691 5697 5702 5708 5713 5717 5721 5722 5723 5729 5736 5741 5748 5753 5756 5760 5762 5762 5765 5769 5771 5773 5776 5779 5783 5787 5789 5793 5795 5797 5800 5805 5808 5809 5810 5810 5811 5812 5814 5817 5819 5820 5823 5826 5828 5829 5830 5832 5833 5835 5837 5839 5841 5842 5843 5845 5846 5847 5849 5850 5853 5855 5857 5857 5859 5860 5860 5861 5862 5862 5862 5863 5864 5864 5864 5864 5865 5866 5867 5867 5868 5869 5870 5870 5871
5678 5683 5689 5695 5701 5706 5712 5717 5719 5722 5727 5731 5735 5742 5747 5750 5753 5756 5759 5761 5764 5766 5769 5772 5775 5779 5781 5784 5788 5790 5792 5795 5799 5802 5804 5806 5807 5807 5808 5810 5812 5813 5815 5816 5819 5822 5824 5825 5827 5829 5830 5832 5833 5834 5836 5838 5840 5841 5842 5844 5845 5847 5849 5851 5852 5854 5856 5857 5858 5858 5858 5859 5859 5860 5860 5861 5861 5862 5863 5864 5864 5865 5865 5865 5866 5867
5671 5676 5681 5687 5693 5700 5706 5712 5716 5719 5722 5725 5729 5735 5740 5744 5748 5752 5756 5758 5760 5762 5765 5768 5771 5773 5776 5780 5783 5786 5788 5790 5793 5796 5798 5801 5803 5804 5806 5807 5808 5810 5812 5813 5814 5817 5819 5821 5823 5825 5826 5827 5828 5830 5832 5833 5834 5836 5837 5838 5840 5842 5843 5845 5847 5849 5851 5852 5854 5855 5855 5855 5855 5856 5857 5857 5858 5859 5860 5860 5861 5861 5861 5861 5862 5863
5666 5669 5672 5678 5685 5693 5699 5704 5710 5715 5718 5722 5725 5730 5735 5739 5742 5747 5751 5752 5755 5759 5762 5764 5766 5769 5772 5776 5779 5782 5784 5786 5788 5790 5793 5796 5799 5801 5803 5804 5806 5807 5809 5810 5811 5813 5814 5816 5818 5820 5821 5822 5824 5826 5827 5828 5829 5830 5831 5833 5835 5836 5837 5839 5842 5844 5846 5848 5849 5850 5851 5851 5851 5852 5853 5853 5854 5855 5855 5856 5857 5857 5857 5857 5858 5859
5660 5660 5663 5670 5677 5684 5691 5698 5705 5710 5715 5718 5721 5725 5730 5734 5738 5742 5744 5746 5750 5755 5757 5759 5762 5765 5768 5771 5774 5778 5780 5782 5785 5787 5789 5793 5795 5797 5800 5801 5802 5803 5804 5806 5808 5809 5811 5812 5813 5814 5816 5816 5818 5821 5822 5823 5823 5824 5826 5828 5829 5829 5831 5834 5836 5839 5841 5842 5843 5844 5846 5847 5847 5847 5848 5849 5849 5850 5851 5852 5852 5852 5853 5853 5854 5854
5651 5653 5657 5663 5669 5676 5684 5691 5698 5703 5706 5710 5714 5718 5723 5728 5733 5735 5737 5741 5746 5750 5753 5756 5759 5761 5764 5767 5770 5773 5776 5778 5781 5783 5786 5789 5790 5792 5794 5796 5798 5799 5800 5802 5804 5805 5807 5807 5809 5810 5811 5811 5813 5814 5815 5816 5817 5818 5820 5822 5822 5824 5826 5829 5830 5831 5833 5835 5836 5838 5840 5842 5842 5843 5844 5845 5845 5845 5846 5847 5847 5848 5849 5849 5850 5850
5644 5648 5652 5658 5665 5671 5677 5683 5690 5695 5698 5702 5708 5712 5716 5722 5726 5729 5732 5738 5742 5745 5749 5753 5755 5757 5760 5763 5766 5769 5771 5773 5776 5779 5781 5784 5786 5787 5788 5790 5792 5794 5795 5797 5798 5800 5801 5802 5804 5806 5807 5807 5807 5807 5808 5810 5811 5812 5814 5815 5817 5819 5821 5822 5823 5823 5825 5827 5829 5832 5834 5836 5837 5838 5839 5840 5840 5841 5842 5842 5843 5843 5844 5844 5845 5845
5641 5645 5650 5655 5662 5667 5670 5675 5682 5687 5691 5697 5703 5707 5712 5717 5720 5724 5729 5733 5737 5741 5745 5748 5750 5752 5755 5759 5762 5765 5767 5769 5771 5774 5776 5778 5780 5782 5783 5784 5786 5787 5789 5790 5792 5794 5796 5798 5799 5800 5801 5802 5802 5802 5802 5803 5805 5806 5808 5809 5811 5813 5814 5814 5815 5816 5818 5821 5823 5825 5826 5829 5831 5832 5833 5834 5836 5837 5837 5838 5838 5839 5839 5840 5840 5840
5638 5642 5647 5653 5658 5661 5664 5668 5673 5678 5683 5690 5697 5703 5708 5713 5716 5721 5726 5730 5733 5736 5739 5742 5745 5748 5751 5755 5758 5760 5763 5765 5766 5769 5771 5773 5775 5776 5777 5778 5779 5780 5782 5784 5785 5787 5790 5792 5793 5794 5794 5794 5795 5795 5796 5796 5798 5800 5802 5803 5804 5805 5806 5807 5808 5810 5812 5814 5815 5817 5818 5820 5823 5825 5827 5829 5831 5832 5832 5833 5833 5834 5835 5835 5835 5835
5635 5639 5644 5650 5654 5657 5660 5664 5669 5673 5679 5685 5692 5697 5703 5709 5714 5718 5722 5725 5728 5731 5734 5737 5741 5743 5747 5750 5753 5755 5758 5759 5761 5763 5765 5767 5769 5770 5771 5772 5773 5774 5776 5777 5778 5780 5782 5784 5786 5787 5787 5788 5788 5789 5790 5791 5791 5793 5795 5796 5797 5797 5799 5800 5802 5804 5805 5806 5807 5809 5811 5812 5814 5817 5820 5823 5824 5826 5827 5827 5828 5829 5829 5829 5829 5829
5630 5637 5643 5647 5651 5654 5658 5662 5668 5672 5677 5683 5689 5693 5698 5704 5709 5713 5717 5720 5723 5726 5729 5732 5735 5738 5741 5744 5747 5749 5751 5753 5755 5757 5759 5761 5763 5765 5766 5766 5767 5768 5769 5771 5772 5773 5774 5776 5778 5780 5782 5783 5783 5784 5785 5786 5786 5788 5788 5789 5789 5790 5791 5792 5794 5797 5798 5799 5799 5801 5802 5803 5805 5808 5812 5815 5817 5818 5820 5821 5821 5822 5823 5823 5823 5823
5626 5634 5641 5644 5648 5652 5656 5660 5666 5671 5674 5679 5684 5689 5693 5698 5703 5707 5711 5715 5718 5722 5726 5728 5731 5734 5736 5739 5741 5743 5745 5747 5750 5752 5754 5756 5758 5759 5759 5760 5761 5763 5763 5765 5766 5766 5767 5769 5770 5772 5774 5775 5777 5779 5780 5781 5782 5783 5782 5782 5782 5782 5782 5783 5785 5786 5788 5789 5790 5791 5790 5790 5793 5799 5803 5806 5809 5810 5811 5812 5814 5815 5817 5817 5817 5818
5623 5631 5638 5642 5645 5650 5654 5659 5664 5670 5672 5675 5680 5684 5690 5695 5699 5703 5707 5710 5714 5718 5721 5724 5727 5729 5731 5734 5736 5738 5739 5742 5744 5746 5748 5750 5751 5752 5753 5754 5755 5757 5758 5760 5760 5760 5761 5763 5764 5765 5767 5768 5770 5772 5773 5775 5776 5776 5776 5776 5775 5773 5773 5775 5775 5776 5776 5777 5778 5779 5777 5774 5777 5786 5793 5797 5800 5802 5803 5805 5807 5808 5810 5811 5812 5812
5620 5628 5635 5640 5643 5647 5651 5656 5662 5667 5671 5674 5677 5681 5686 5692 5696 5699 5702 5705 5709 5713 5717 5719 5722 5724 5726 5729 5731 5732 5734 5736 5738 5740 5742 5743 5745 5746 5747 5748 5750 5751 5753 5754 5755 5755 5755 5757 5758 5759 5760 5762 5764 5765 5767 5767 5767 5767 5767 5767 5766 5765 5766 5766 5765 5764 5764 5764 5764 5766 5767 5767 5768 5774 5781 5786 5790 5793 5795 5796 5799 5801 5803 5805 5806 5806
5617 5624 5631 5637 5641 5644 5648 5652 5657 5662 5667 5672 5675 5677 5683 5688 5693 5696 5699 5701 5704 5708 5711 5714 5716 5719 5721 5724 5726 5728 5729 5730 5732 5734 5736 5737 5739 5740 5741 5742 5744 5745 5747 5748 5748 5748 5749 5751 5753 5754 5755 5756 5758 5760 5760 5759 5758 5758 5757 5757 5757 5758 5758 5756 5753 5751 5751 5749 5749 5754 5761 5766 5767 5768 5771 5775 5780 5784 5786 5788 5791 5794 5796 5798 5799 5800
5616 5621 5628 5633 5638 5641 5644 5648 5652 5657 5662 5668 5672 5676 5681 5685 5688 5690 5693 5696 5699 5702 5704 5707 5710 5713 5716 5719 5720 5722 5724 5725 5727 5728 5730 5732 5733 5734 5735 5737 5738 5740 5741 5742 5742 5743 5744 5745 5747 5748 5749 5751 5752 5753 5753 5752 5751 5750 5749 5748 5749 5749 5749 5744 5736 5732 5734 5737 5740 5745 5751 5756 5760 5763 5765 5769 5771 5775 5779 5782 5784 5787 5789 5791 5793 5794